Regional Weather Roundup
Issued by NWS

Home | Current Version | Previous Version | Text Only | Print | Product List | Glossary On
Versions: 1 2 3 4 5 6 7 8 9 10 11 12 13 14 15 16 17 18 19 20 21 22 23 24 25 26 27 28 29 30 31 32 33 34 35 36 37 38 39 40 41 42 43 44 45 46 47 48 49 50
000
ASUS44 KFWD 180815
RWRTX
NORTH TEXAS HOURLY WEATHER ROUNDUP
NATIONAL WEATHER SERVICE FORT WORTH TX
300 AM CDT FRI APR 18 2014

NOTE: "FAIR" INDICATES FEW OR NO CLOUDS BELOW 12,000 FEET WITH NO
SIGNIFICANT WEATHER AND/OR OBSTRUCTIONS TO VISIBILITY.

TXZ118-119-180900-
DALLAS/FORT WORTH METROPLEX

CITY           SKY/WX    TMP DP  RH WIND       PRES   REMARKS
DFW AIRPORT    CLOUDY    57  54  89 NW3       30.18F FOG
DALLAS LOVE    LGT RAIN  58  54  86 CALM      30.18F
FTW MEACHAM    CLOUDY    56  54  93 N6        30.18F
DAL-EXECUTIVE  PTCLDY    53  50  89 NW5       30.17F FOG
FTW-ALLIANCE   CLOUDY    56  53  90 N3        30.18F
FTW-NAS-JRB    LGT RAIN  59  52  77 NW7       30.23F
FTW-SPINKS     CLOUDY    54  52  95 N5        30.20S FOG
ARLINGTON      CLOUDY    54  52  93 CALM      30.18F
GRAND PRAIRIE  MOCLDY    54  52  94 N5        30.21F
ADDISON        CLOUDY    58  56  94 CALM      30.19F
MESQUITE       CLOUDY    56  53  90 CALM      30.18F
LANCASTER      MOCLDY    53  49  86 CALM      30.19F
$$

TXZ091>094-102>105-117-120-121-131>134-180900-
NORTH CENTRAL TEXAS

CITY           SKY/WX    TMP DP  RH WIND       PRES   REMARKS
SHRMAN/DENISON PTCLDY    54  49  86 CALM      30.21F
GAINESVILLE    CLOUDY    54  52  91 CALM      30.22F
BOWIE          CLOUDY    55  54  97 CALM      30.21F FOG
BRIDGEPORT     CLOUDY    55  55  97 CALM      30.22F FOG
DECATUR        CLOUDY    54  54  98 CALM      30.20F
DENTON         CLOUDY    56  54  93 CALM      30.19F FOG
MCKINNEY       PTCLDY    54  52  93 N8        30.19F
GREENVILLE     PTCLDY    54  52  94 CALM      30.19S
ROCKWALL       CLOUDY    56  54  92 CALM      30.17F
TERRELL        CLOUDY    57  54  89 CALM      30.18F
WAXAHACHIE     CLOUDY    56  50  78 N3        30.19F
CLEBURNE       MOCLDY    57  55  94 NE6       30.20F
GRANBURY       CLOUDY    56  54  94 CALM      30.21S FOG
$$

TXZ083>090-098>101-113>116-127>130-139>142-154-155-180900-
WESTERN NORTH TEXAS

CITY           SKY/WX    TMP DP  RH WIND       PRES   REMARKS
WICHITA FALLS  CLOUDY    54  51  90 N3        30.22S
WF-KICKAPOO    MOCLDY    55  53  92 N6        30.23F
VERNON         CLOUDY    52  49  89 N5        30.24S
ABILENE        CLOUDY    52  50  93 NW8       30.22F FOG
ABILENE-DYESS  CLOUDY    51  50  97 NW7       30.22F FOG
BRECKENRIDGE   CLOUDY    58  54  86 SE10      30.20F
GRAHAM         CLOUDY    55  53  93 CALM      30.19F
MINERAL WELLS  CLOUDY    56  54  93 CALM      30.18F
STEPHENVILLE   CLOUDY    55  53  92 CALM      30.22F
COMANCHE       CLOUDY    56  55  97 E3        30.20F
BROWNWOOD      CLOUDY    57  57 100 E3        30.20F FOG
COLEMAN        CLOUDY    57  53  84 CALM      30.20F
$$

TXZ143>147-156>162-174-175-180900-
CENTRAL TEXAS

CITY           SKY/WX    TMP DP  RH WIND       PRES   REMARKS
WACO           CLOUDY    58  56  93 NW5       30.17F
WACO-MCGREGOR  CLOUDY    57  52  82 NW5       30.19S
HILLSBORO      PTCLDY    57  51  78 NE8       30.18S
CORSICANA      CLOUDY    61  52  72 CALM      30.17F
MEXIA          CLOUDY    59  53  79 CALM      30.16F
HEARNE         CLOUDY    61  59  94 CALM      30.17S
CAMERON        CLOUDY    61  60  96 CALM      30.17S
TEMPLE         CLOUDY    57  54  88 N6        30.20F
KILLEEN        LGT RAIN  57  57 100 N6        30.17F FOG
KILLEEN-SKYLRK MOCLDY    57  54  88 NE5       30.17R
FORT HOOD      LGT RAIN  60  57  89 N3        30.17F
GATESVILLE     CLOUDY    57  55  94 CALM      30.20F
HAMILTON       CLOUDY    57  57 100 NE8       30.19F FOG
LAMPASAS       CLOUDY    60  59  96 N3        30.17F FOG
$$

TXZ095>097-106>112-122>126-135>138-148>153-164>167-180900-
EAST TEXAS

CITY           SKY/WX    TMP DP  RH WIND       PRES   REMARKS
PARIS          CLEAR     52  46  82 N7        30.19F
SULPHUR SPRNGS CLEAR     56  48  76 CALM      30.20F
CLARKSVILLE    CLEAR     53  45  75 CALM      30.19S
MOUNT PLEASANT PTCLDY    54  47  78 N3        30.20R
GILMER         MOCLDY    54  52  94 CALM      30.20R
MINEOLA        MOCLDY    54  52  94 CALM      30.19S
TYLER          MOCLDY    56  50  80 CALM      30.17S
LONGVIEW       CLOUDY    55  51  86 CALM      30.16F
MARSHALL       CLOUDY    53  50  88 CALM      30.18F
ATHENS         MOCLDY    54  50  87 CALM      30.16S
PALESTINE      MOCLDY    59  50  73 CALM      30.18S
JACKSONVILLE   MOCLDY    56  49  77 CALM      30.17F
HENDERSON      CLOUDY    55  49  80 CALM      30.17S
NACOGDOCHES    CLOUDY    54  50  87 CALM      30.16F
LUFKIN         CLOUDY    59  52  77 N3        30.15F
$$

SUPPLEMENTAL OBSERVATIONS (CENTRAL)

CITY           SKY/WX    TMP DP  RH WIND       PRES   REMARKS
LAKE TEXOMA      N/A     54  52  94 CALM        N/A
CADDO GRASSLND   N/A     48  45  87 CALM        N/A
PAT MAYSE LAKE   N/A     54  48  82 CALM        N/A
ATHENS           N/A     54  48  82 NW1         N/A
LAKE LIMESTONE   N/A     61  54  77 N6          N/A
MCGREGOR         N/A     57  54  88 N3          N/A
$$

SUPPLEMENTAL OBSERVATIONS (WEST)

CITY           SKY/WX    TMP DP  RH WIND       PRES   REMARKS
MILLERS CREEK    N/A     54  52  94 E3          N/A
LBJ GRASSLAND    N/A     54  50  87 E1          N/A
COMANCHE         N/A     55  52  88 SE5         N/A
HAMBY            N/A     52  48  87 NW7         N/A
IVIE RESERVOIR   N/A     57  54  88 N3          N/A
COLORADO BEND    N/A     57  55  94 CALM        N/A
$$

SUPPLEMENTAL OBSERVATIONS (EAST)

CITY           SKY/WX    TMP DP  RH WIND       PRES   REMARKS
TEXARKANA        N/A     52  48  87 CALM        N/A
LINDEN           N/A     55  50  82 CALM        N/A
CADDO LAKE       N/A     52  50  93 CALM        N/A
LUFKIN           N/A     57  52  82 MISG        N/A
$$

SUPPLEMENTAL OBSERVATIONS ARE A COLLECTION OF AUTOMATED INSTRUMENTS
THAT ARE MAINTAINED BY A VARIETY OF FEDERAL AND STATE AGENCIES.
CERTAIN ELEMENTS...SUCH AS HUMIDITY VALUES AND SUSTAINED WIND
SPEEDS...MAY BE APPROXIMATED.




USA.gov is the U.S. government's official web portal to all federal, state and local government web resources and services.